Location: Zagreb
(45.8000°N, 16.0000°E)
Time: 20:46:28
(UTC+01:00)

deb Explorer IX - Pass Details

Date: 04 October 2020
Orbit: 537 x 1106 km, 38.8° (Epoch: 30 October)

Event Time Altitude Azimuth Distance (km) Brightness Sun altitude
Rises 18:19:52 0° 257° (WSW) 3,253 ? 0.9°
Reaches altitude 10° 18:22:39 10° 249° (WSW) 2,223 ? 0.4°
Maximum altitude 18:27:19 36° 184° (S) 1,042 ? -0.4°
Drops below altitude 10° 18:31:24 10° 118° (ESE) 1,939 ? -1.1°
Sets 18:33:41 0° 109° (ESE) 2,782 ? -1.5°
Enters shadow 18:33:50 -1° 109° (ESE) 2,839 ? -1.5°
